Location: Maignaut
(43.8886°N, 0.4051°E)
Time: 19:54:31
(UTC+00:00)

COSMOS 2455 - Pass Details

Date: 17 January 2021
Orbit: 901 x 908 km, 67.1° (Epoch: 28 February)

Event Time Altitude Azimuth Distance (km) Brightness Sun altitude
Rises 19:12:53 0° 220° (SW) 3,519 6.6 -25.5°
Reaches altitude 10° 19:15:25 10° 224° (SW) 2,582 5.8 -25.9°
Maximum altitude 19:21:21 62° 305° (NW) 1,018 3.2 -27.0°
Enters shadow 19:23:37 38° 9° (N) 1,364 3.6 -27.4°
